EW7598 Weather Reports


Display with metric or nautical units.
time (UTC)temp
F
wind
direction
speed
MPH
gust
MPH
rain 1hr
in
rain 24hr
in
rain mn
in
humidity
%
barometer
mb
20260906104520 70 316 0.0 0.0 0.00 0.07 0.00 14 1012.1
20260906103019 70 310 0.0 0.0 0.00 0.07 0.00 14 1012.1
20260906101518 70 309 0.0 0.0 0.00 0.07 0.00 14 1011.8
20260906100015 70 338 0.0 0.0 0.00 0.07 0.00 14 1011.6
20260906094513 70 307 0.0 0.0 0.00 0.07 0.00 14 1011.4
20260906093037 70 261 0.0 3.0 0.00 0.07 0.00 15 1011.3
20260906091512 69 329 0.0 1.0 0.00 0.07 0.00 15 1011.2
20260906090017 69 342 0.0 0.0 0.00 0.07 0.00 15 1011.2
20260906084516 68 37 0.0 0.0 0.00 0.07 0.00 16 1010.9
20260906083014 68 10 0.0 0.0 0.00 0.07 0.00 17 1010.6
20260906081508 67 11 0.0 0.0 0.00 0.07 0.00 19 1010.5
20260906080007 68 11 0.0 0.0 0.00 0.07 0.00 18 1010.6
20260906074521 67 159 0.0 0.0 0.00 0.07 0.00 19 1010.6
20260906073005 67 165 0.0 0.0 0.00 0.07 0.00 21 1010.4
20260906071505 67 165 0.0 0.0 0.00 0.07 0.00 21 1010.4
20260906070005 67 165 0.0 0.0 0.00 0.07 0.00 21 1010.5
20260906064501 67 165 0.0 0.0 0.00 0.07 0.00 22 1010.7
20260906063100 67 165 0.0 0.0 0.00 0.07 0.00 22 1010.7
20260906061606 67 165 0.0 0.0 0.00 0.07 0.00 22 1010.9
20260906060057 67 165 0.0 0.0 0.00 0.07 0.00 23 1010.8
20260906054603 67 165 0.0 0.0 0.00 0.07 0.00 24 1010.8
20260906053107 68 165 0.0 0.0 0.00 0.07 0.00 25 1010.9
20260906051552 68 165 0.0 0.0 0.00 0.07 0.00 25 1011.0
20260906050049 68 165 0.0 0.0 0.00 0.07 0.00 26 1011.2
20260906044547 68 165 0.0 0.0 0.00 0.07 0.00 28 1011.3
20260906043046 68 165 0.0 0.0 0.00 0.07 0.00 28 1011.4
20260906041552 69 165 0.0 0.0 0.00 0.07 0.00 28 1011.4
20260906040042 69 165 0.0 0.0 0.00 0.07 0.00 28 1011.4
20260906034545 69 165 0.0 0.0 0.00 0.07 0.07 29 1011.3
20260906033045 69 165 0.0 0.0 0.00 0.07 0.07 31 1011.3
20260906031542 69 165 0.0 0.0 0.00 0.07 0.07 33 1011.3
20260906030048 69 165 0.0 0.0 0.00 0.07 0.07 34 1011.2
20260906024551 70 165 0.0 0.0 0.00 0.07 0.07 33 1011.3
20260906023040 70 165 0.0 1.0 0.00 0.07 0.07 33 1011.0
20260906021540 70 252 0.0 0.0 0.00 0.07 0.07 35 1010.7
20260906020039 70 252 0.0 0.0 0.00 0.07 0.07 35 1010.5
20260906014546 70 252 0.0 0.0 0.00 0.07 0.07 35 1010.4
20260906013038 70 252 0.0 0.0 0.00 0.07 0.07 39 1010.4
20260906011552 71 252 0.0 0.0 0.00 0.07 0.07 43 1010.4
20260906010059 71 252 0.0 0.0 0.00 0.07 0.07 44 1010.1
20260906004541 71 252 0.0 0.0 0.00 0.07 0.07 48 1010.1
20260906003041 72 252 0.0 0.0 0.00 0.07 0.07 51 1010.0
20260906001556 73 252 0.0 0.0 0.00 0.07 0.07 57 1009.9
20260906000035 73 252 0.0 0.0 0.00 0.07 0.07 59 1009.7
20260905234535 74 252 0.0 0.0 0.00 0.07 0.07 62 1009.4
20260905233034 75 252 0.0 0.0 0.00 0.07 0.07 64 1009.3
20260905231541 75 252 0.0 0.0 0.00 0.07 0.07 60 1009.4
20260905230037 75 252 0.0 0.0 0.00 0.07 0.07 62 1009.2
20260905224542 75 252 0.0 0.0 0.00 0.07 0.07 65 1009.1
20260905223038 76 252 0.0 0.0 0.00 0.07 0.07 68 1009.3
20260905221535 76 252 0.0 0.0 0.00 0.07 0.07 70 1009.3
20260905220030 77 252 0.0 0.0 0.00 0.07 0.07 68 1009.7
20260905214532 77 252 0.0 0.0 0.00 0.07 0.07 63 1009.8
20260905213030 77 252 0.0 0.0 0.00 0.07 0.07 50 1010.2
20260905211539 75 252 0.0 0.0 0.00 0.07 0.07 39 1010.2
20260905210027 74 172 0.0 0.0 0.00 0.07 0.07 37 1009.9
20260905204531 73 172 0.0 0.0 0.00 0.07 0.07 33 1009.8
20260905203038 73 172 0.0 0.0 0.00 0.07 0.07 34 1010.0
20260905201548 72 172 0.0 0.0 0.00 0.07 0.07 39 1009.8
20260905200026 73 172 0.0 0.0 0.07 0.07 0.07 45 1010.0
20260905194525 73 172 0.0 0.0 0.07 0.07 0.07 56 1009.7
20260905193027 74 193 2.0 3.0 0.07 0.07 0.07 63 1009.5
20260905191528 77 211 0.0 1.0 0.07 0.07 0.07 76 1010.3
20260905190023 81 267 2.0 17.0 0.00 0.00 0.00 65 1010.5
20260905184528 87 10 6.0 27.0 0.00 0.00 0.00 57 1010.0
20260905183023 91 260 0.0 1.0 0.00 0.00 0.00 57 1009.0
20260905181520 92 266 0.0 2.0 0.00 0.00 0.00 55 1009.2
20260905180018 92 216 0.0 2.0 0.00 0.00 0.00 56 1009.6
20260905174516 92 257 0.0 7.0 0.00 0.00 0.00 58 1009.8
20260905173013 91 258 0.0 2.0 0.00 0.00 0.00 58 1010.2
20260905171509 91 341 0.0 4.0 0.00 0.00 0.00 63 1010.7
20260905170009 91 264 0.0 3.0 0.00 0.00 0.00 59 1011.0
20260905164511 90 243 0.0 1.0 0.00 0.00 0.00 59 1011.0
20260905163007 90 251 0.0 3.0 0.00 0.00 0.00 59 1011.0
20260905161507 90 345 2.0 7.0 0.00 0.00 0.00 61 1011.3
20260905160005 90 264 0.0 2.0 0.00 0.00 0.00 59 1011.5
20260905154503 90 264 0.0 1.0 0.00 0.00 0.00 60 1011.7
20260905153003 90 301 0.0 4.0 0.00 0.00 0.00 64 1011.8
20260905151558 88 250 0.0 5.0 0.00 0.00 0.00 63 1011.9
20260905150056 87 275 0.0 1.0 0.00 0.00 0.00 67 1012.1
20260905144551 86 281 1.0 3.0 0.00 0.00 0.00 70 1012.3
20260905143049 85 278 0.0 0.0 0.00 0.00 0.00 70 1012.1
20260905141545 84 266 0.0 0.0 0.00 0.00 0.00 71 1012.0
20260905140013 83 239 0.0 0.0 0.00 0.00 0.00 74 1012.0
20260905134509 81 239 0.0 0.0 0.00 0.00 0.00 74 1012.0
20260905133005 80 2 0.0 0.0 0.00 0.00 0.00 75 1012.0
20260905131501 78 2 0.0 0.0 0.00 0.00 0.00 74 1012.2
20260905130057 77 2 0.0 0.0 0.00 0.00 0.00 70 1012.3
20260905124553 76 2 0.0 0.0 0.00 0.00 0.00 64 1012.5
20260905123049 74 6 0.0 0.0 0.00 0.00 0.00 50 1012.4
20260905121550 72 6 0.0 0.0 0.00 0.00 0.00 30 1012.4
20260905120046 70 6 0.0 0.0 0.00 0.00 0.00 23 1012.3
20260905114546 70 6 0.0 0.0 0.00 0.00 0.00 25 1012.0
20260905113043 69 6 0.0 0.0 0.00 0.00 0.00 29 1011.8
20260905111543 69 6 0.0 0.0 0.00 0.00 0.00 30 1011.7
20260905110044 69 6 0.0 0.0 0.00 0.00 0.00 30 1011.5